This demonstration page uses our WeatherBlox Daily Observations layout. Learn more.

Left ArrowRight Arrow

38.20091, -84.87328

Hourly Observations for September 5, 2022

Temp ( °F °C ) Dew Point ( °F °C ) Humidity (%) Winds ( mph kmh ) Pressure ( in mb ) Visibility ( mi km ) Precip ( " mm )
12:53 am 00:53 Partly Cloudy 73 22.8 70 21.1 90 90 SE 3 6 29.97 1015 10 16 0.00 0.00
1:53 am 01:53 Cloudy 73 22.8 70 21.1 90 90 SSE 3 6 29.96 1015 10 16 0.00 0.00
2:53 am 02:53 Cloudy 73 22.8 69 20.6 87 87 SE 5 7 29.94 1014 10 16 0.00 0.00
3:53 am 03:53 Clear 72 22.2 69 20.6 91 91 SE 5 7 29.93 1014 10 16 0.00 0.00
4:53 am 04:53 Mostly Cloudy 71 21.7 69 20.6 93 93 SE 5 7 29.93 1014 10 16 0.00 0.00
5:53 am 05:53 Clear 71 21.7 68 20 90 90 SSE 6 9 29.94 1014 10 16 0.00 0.00
6:53 am 06:53 Cloudy 70 21.1 68 20 93 93 SSE 3 6 29.96 1014 10 16 0.00 0.00
7:53 am 07:53 Cloudy 72 22.2 69 20.6 91 91 Calm 29.97 1015 10 16 0.00 0.00
8:21 am 08:21 Mostly Cloudy 72 22.2 69 20.6 91 91 SSE 3 6 29.98 1015 10 16 0.00 0.00
8:53 am 08:53 Cloudy with Light Rain 73 22.8 69 20.6 87 87 WSW 6 9 29.98 1015 6 10 0.01 0.25
8:58 am 08:58 Cloudy with Heavy Rain 72 22.2 69 20.6 91 91 W 5 7 29.98 1015 1 1 0.12 3.05
9:09 am 09:09 Cloudy with Heavy Rain 72 22.2 70 21.1 93 93 Calm 29.98 1015 1 2 0.23 5.84
9:13 am 09:13 Cloudy with Heavy Rain 72 22.2 70 21.1 93 93 Calm 29.98 1015 2 3 0.23 5.84
9:22 am 09:22 Cloudy 73 22.8 70 21.1 90 90 ESE 3 6 29.97 1015 10 16 0.23 5.84
9:53 am 09:53 Cloudy 74 23.3 71 21.7 91 91 Calm 29.98 1015 10 16 0.23 5.84
10:53 am 10:53 Mostly Cloudy 78 25.6 72 22.2 82 82 Calm 29.98 1015 10 16 0.00 0.00
11:40 am 11:40 Mostly Cloudy with Light Rain 76 24.4 72 22.2 88 88 NW 3 6 29.98 1015 10 16 0.01 0.25
11:53 am 11:53 Partly Cloudy 77 25 72 22.2 84 84 WNW 3 6 29.98 1015 10 16 0.01 0.25
12:22 pm 12:22 Mostly Cloudy 79 26.1 73 22.8 82 82 WNW 6 9 29.97 1015 10 16 0.00 0.00
12:46 pm 12:46 Partly Cloudy 81 27.2 72 22.2 74 74 VRB 6 9 29.96 1015 10 16 0.00 0.00
12:53 pm 12:53 Partly Cloudy 81 27.2 72 22.2 74 74 NW 5 7 29.98 1015 10 16 0.00 0.00
1:28 pm 13:28 Mostly Cloudy 81 27.2 71 21.7 72 72 N 6 9 29.95 1014 10 16 0.00 0.00
1:53 pm 13:53 Partly Cloudy 82 27.8 71 21.7 69 69 N 5 7 29.96 1015 10 16 0.00 0.00
2:53 pm 14:53 Mostly Cloudy 83 28.3 70 21.1 65 65 NNE 5 7 29.95 1014 10 16 0.00 0.00
3:33 pm 15:33 Cloudy 79 26.1 71 21.7 77 77 E 12 19 29.93 1014 10 16 0.00 0.00
3:53 pm 15:53 Mostly Cloudy 77 25 71 21.7 82 82 ESE 10 17 29.95 1014 10 16 0.00 0.00
4:21 pm 16:21 Mostly Cloudy 77 25 70 21.1 79 79 VRB 5 7 29.95 1014 10 16 0.00 0.00
4:53 pm 16:53 Mostly Sunny 76 24.4 72 22.2 88 88 ESE 7 11 29.94 1014 10 16 0.01 0.25
5:53 pm 17:53 Sunny 79 26.1 71 21.7 77 77 SE 7 11 29.94 1014 10 16 0.00 0.00
6:53 pm 18:53 Mostly Cloudy 77 25 70 21.1 79 79 Calm 29.96 1014 10 16 0.00 0.00
7:08 pm 19:08 Mostly Cloudy with Nearby Thunderstorms 77 25 70 21.1 79 79 Calm 29.96 1015 10 16 0.00 0.00
7:27 pm 19:27 Cloudy with Nearby Thunderstorms 73 22.8 65 18.3 76 76 NW 9 15 29.96 1015 10 16 0.00 0.00
7:34 pm 19:34 Cloudy with Thunderstorms 72 22.2 65 18.3 79 79 VRB 3 6 29.97 1015 10 16 0.00 0.00
7:53 pm 19:53 Cloudy with Thunderstorms 72 22.2 67 19.4 84 84 E 7 11 29.96 1015 4 6 0.04 1.02
7:58 pm 19:58 Cloudy with Strong Thunderstorms 71 21.7 68 20 90 90 ESE 6 9 29.96 1014 2 3 0.06 1.52
8:11 pm 20:11 Mostly Cloudy with Rain 70 21.1 68 20 93 93 S 6 9 29.96 1014 5 8 0.10 2.54
8:53 pm 20:53 Mostly Cloudy with Light Rain 71 21.7 69 20.6 93 93 NNW 8 13 29.96 1015 9 14 0.12 3.05
9:53 pm 21:53 Partly Cloudy 70 21.1 69 20.6 97 97 NNW 3 6 29.98 1015 10 16 0.01 0.25
10:53 pm 22:53 Clear 70 21.1 69 20.6 97 97 WSW 5 7 29.98 1015 10 16 0.00 0.00
11:53 pm 23:53 Clear 69 20.6 68 20 96 96 Calm 29.99 1016 10 16 0.00 0.00

Powered by AerisWeather